sat.trackr.live / text

‹ back to catalog

STARLINK-37616

NORAD 69040 · 2026-101R

PAYLOAD ACTIVE UNKNOWN

§ Identity

Operator
Country
US
Launch date
2026-05-06
Launch site
AFWTR
Launch vehicle
Mass (kg)
RCS (m²)

Purposes: comms

External: N2YO · Heavens-Above · Gunter

§ Orbital elements

Epoch: 2026-09-20T00:45:14.510016Z

Period
93.91 min
Inclination
97.2845°
Eccentricity
0.0002366
Mean motion
15.33450008 rev/d
Perigee alt
463.9 km
Apogee alt
467.1 km
Semi-major
6,843.7 km
B*
4.4665e-4
RAAN
116.4718°
Arg perigee
84.5393°
Mean anomaly
275.6120°
Rev number
2,110

§ Raw data

STARLINK-376161 69040U 26101R   26263.03141794  .00014375  00000+0  44665-3 0  99942 69040  97.2845 116.4718 0002366  84.5393 275.6120 15.33450008 21109

JSON: /api/v1/satellites/69040 · /tle

For live sub-satellite position, see the globe view (requires WebGL).

§ Visibility from observer

Set your observer location to see the next 7 days of passes ≥ 10°. The values pass through the URL so the page stays shareable.

No JS? Fill the form by hand. The geolocation button needs JavaScript.